DELTA 2 R/B, 40060

Orbit data source: Space-Track

DELTA 2 R/B, 40060 is space debris in HEO originally from a launch on Wed, 02 Jul 2014 UTC launched from the Air Force Western Test Range (AFWTR). Debris objects in space refer to the collection of defunct objects orbiting the Earth. Examples of debris include non-operational satellites, rocket bodies, and fragments generated from explosions, collisions, or faulty payload assembly.

Loading next visibility...
Identifier
40060, 2014-035B
Orbit
HEO
Country
Flag of USUS
Related business
Manufacturer
Boeing/Pueblo
Mission
Spacecraft
Bus & Motor
DELTA/0020, Unknown motor
Mass
~924 kg wet, 924 kg dry
Launch date (UTC)
2014-07-02 (12 years ago)
Launch vehicle
Unknown
Launch site
Air Force Western Test Range (AFWTR)
Object type
Payload
Rocket body
Debris
Shape & HBR
Cyl + Cone, 3.0 m
Radar Cross Section
13.836 m², Large (>1 m²)

Expand to show TLE details & history
Last TLE update: 2 days ago

TLE from 2 days ago
0 DELTA 2 R/B
1 40060U 14035B   26171.22028235  .00000015  00000-0  00000+0 0  9999
2 40060  98.2027  96.0416 3069582 134.7025 254.8972  6.11243056267089
Epoch: 2026-06-20T05:17Z
TLE epoch observation values (Epoch: 2026-06-20T05:17:12.395Z)
Latitude
0.00005°
Longitude
108.30406°
Altitude
8,215.743 km
Speed
4.805 km/s
True Right ascension
06h 24m 10s
True Declination
0° 00' 00"
Sunlit
Object was in daylight at epoch
Visualization orbit readout
Latitude
Unknown
Longitude
Unknown
Altitude
Unknown
Speed
Unknown
Apparent Right ascension
Unknown
Apparent Declination
Unknown
Sunlit
N/A
Visualization observer readout
Local Sidereal Time
21:42:37
Azimuth
Unknown
Elevation
Unknown
Doppler factor
Unknown
Orbital elements
Apogee altitude
10,133.467 km
Perigee altitude
2,377.485 km
Semi-major axis
12,633.613 km
Eccentricity
0.30696
Inclination
98.2027°
RAAN
96.0416°
Arg. of periapsis
134.7025°
True anomaly
225.36758°
Mean anomaly
254.8972°
Eccentric anomaly
239.71066°
Mean motion
1.52845 °/min
Orbital period
235.53 mins
BSTAR
0
Loading maneuver chart data...
Computing Atmospheric mass density...
Loading historical data...
Loading historical data...
Loading historical data...
Loading historical data...
Loading historical data...
Loading historical data...
Loading historical data...
Other satellites on launch #35 in the year 2014 (2014-07-02 UTC)

Documentation

Showing up to 5 results
|